Zurück zum Katalog

SATCOM 3

AktivKommunikationHEO
NORAD 11635·PAYLOAD·🇺🇸 United States

Gestartet Dec 7, 1979 von Cape Canaveral Space Force Station

Loading…

Nächste Überflüge (nächste 24 Stunden)

TLE

AktuellSource: Space-Track

Epoche: Sep 14, 2026, 08:25 UTC

1 11635U 79101A   26257.35116502 -.00000151  00000-0  00000-0 0  9997
2 11635   8.9384  73.3681 4820374 123.9632 281.1564  1.82526301225590

Verfolge SATCOM 3 in Echtzeit mit AllMySat

Download on the App Store